Location: Champs
(48.8539°N, 2.6040°E)
Time: 02:42:37
(UTC+00:00)

ATLAS 2AS CENTAUR R/B - Pass Details

Date: 26 October 2021
Orbit: 958 x 1254 km, 63.7° (Epoch: 28 November)

Event Time Altitude Azimuth Distance (km) Brightness Sun altitude
Exits shadow 02:18:38 28° 356° (N) 2,098 4.3 -40.2°
Drops below altitude 10° 02:24:08 10° 44° (NE) 3,069 5.7 -39.4°
Sets 02:27:16 0° 56° (NE) 3,983 6.6 -39.0°
